This is the latest recevied weather packets stored in our database for station/object K2CAT. If no packets are shown the sender has not sent any weather packets the latest 10 day(s).
| Time | Temp. | Humidity | Pressure | Rain* | Wind** | Luminosity | Snow |
|---|---|---|---|---|---|---|---|
| 1777704316 | 8.89° C | 97% | 1012.5 hPa | 3.05 mm | - | 0 W/m² | - |
| 1777704012 | 8.89° C | 97% | 1012.3 hPa | 3.05 mm | - | 0 W/m² | - |
| 1777703710 | 8.89° C | 97% | 1012.3 hPa | 0 mm | - | 0 W/m² | - |
| 1777703408 | 8.89° C | 97% | 1012.1 hPa | 1.27 mm | - | 0 W/m² | - |
| 1777703104 | 8.89° C | 97% | 1011.9 hPa | 3.05 mm | - | 0 W/m² | - |
| 1777702803 | 8.89° C | 97% | 1012.2 hPa | 3.05 mm | - | 0 W/m² | - |
| 1777702500 | 8.89° C | 96% | 1012.1 hPa | 3.05 mm | - | 0 W/m² | - |
| 1777702196 | 8.89° C | 96% | 1012.2 hPa | 1.78 mm | - | 0 W/m² | - |
| 1777701892 | 8.89° C | 96% | 1012.2 hPa | 0 mm | - | 0 W/m² | - |
| 1777701589 | 8.89° C | 96% | 1012.1 hPa | 0 mm | - | 0 W/m² | - |
| 1777701287 | 8.89° C | 96% | 1012.2 hPa | 0 mm | - | 0 W/m² | - |
| 1777700987 | 8.89° C | 96% | 1012 hPa | 0 mm | - | 0 W/m² | - |
| 1777700684 | 8.89° C | 96% | 1012.2 hPa | 1.27 mm | - | 0 W/m² | - |
| 1777700381 | 8.89° C | 95% | 1012.2 hPa | 1.27 mm | - | 0 W/m² | - |
| 1777700078 | 8.89° C | 95% | 1012.1 hPa | 0 mm | - | 0 W/m² | - |
| 1777699776 | 8.89° C | 95% | 1012.1 hPa | 3.56 mm | - | 0 W/m² | - |
| 1777699474 | 8.89° C | 95% | 1012.1 hPa | 4.83 mm | - | 0 W/m² | - |
| 1777699172 | 8.89° C | 95% | 1012.2 hPa | 3.05 mm | - | 0 W/m² | - |
| 1777698870 | 9.44° C | 94% | 1012.1 hPa | 0 mm | - | 0 W/m² | - |
| 1777698566 | 8.89° C | 94% | 1012.4 hPa | 0 mm | - | 0 W/m² | - |
| 1777698263 | 8.89° C | 94% | 1011.9 hPa | 0 mm | - | 0 W/m² | - |
| 1777697960 | 8.89° C | 94% | 1012.1 hPa | 1.78 mm | - | 0 W/m² | - |
| 1777697657 | 9.44° C | 94% | 1012.2 hPa | 1.78 mm | - | 0 W/m² | - |
| 1777697354 | 8.89° C | 94% | 1012.1 hPa | 0 mm | - | 0 W/m² | - |
| 1777697049 | 9.44° C | 94% | 1012.1 hPa | 0 mm | - | 0 W/m² | - |
* Rain latest hour (hover to see other rain measurements)
** Current wind speed in m/s (hover to see current wind gust speed)